Regional Weather Roundup
Issued by NWS

Home | Current Version | Previous Version | Text Only | Print | Product List | Glossary Off
Versions: 1 2 3 4 5 6 7 8 9 10 11 12 13 14 15 16 17 18 19 20 21 22 23 24 25 26 27 28 29 30 31 32 33 34 35 36 37 38 39 40 41 42 43 44 45 46 47 48 49 50

000
ASUS43 KLOT 290206
RWRIL

ILLINOIS REGIONAL WEATHER ROUNDUP
NATIONAL WEATHER SERVICE CHICAGO/ROMEOVILLE IL
800 PM CST SUN DEC 28 2014

NOTE: "FAIR" INDICATES FEW OR NO CLOUDS BELOW 12,000 FEET WITH NO
SIGNIFICANT WEATHER AND/OR OBSTRUCTIONS TO VISIBILITY.

* THESE STATIONS ARE NOT UNDER NWS QUALITY CONTROL. THEY ALSO MAY NOT
  REPORT WEATHER SUCH AS PRECIPITATION OR FOG.

ILZ001-002-007-009-015-016-024-290300-
NORTHWEST ILLINOIS

CITY           SKY/WX    TMP DP  RH WIND       PRES   REMARKS
MOLINE         CLEAR     22  17  81 CALM      30.22R
STERLING*      CLEAR     23  16  74 CALM      30.22S
SAVANNA*       PTCLDY    23  20  86 CALM      30.23R
$$

ILZ003-004-008-010-011-017-018-290300-
NORTH CENTRAL ILLINOIS

CITY           SKY/WX    TMP DP  RH WIND       PRES   REMARKS
ROCKFORD       CLEAR     25  17  72 CALM      30.23R
FREEPORT*      CLEAR     22  19  90 CALM      30.23R
ROCHELLE*      CLEAR     23  19  85 W3        30.22R
DE KALB*       CLEAR     24  17  76 W5        30.21R WCI  18
PERU*          CLEAR     29  19  65 CALM      30.23R
$$

ILZ005-006-012>014-019>023-290300-
NORTHEAST ILLINOIS

CITY           SKY/WX    TMP DP  RH WIND       PRES   REMARKS
CHICAGO-OHARE  PTCLDY    27  18  69 W3        30.21R
CHICAGO-MIDWAY CLEAR     30  18  60 SW7       30.22R WCI  23
AURORA         CLEAR     24  17  74 CALM      30.22R
LANSING*       CLEAR     24  18  77 CALM      30.22R
JOLIET*        CLEAR     20  16  84 CALM      30.22S
WAUKEGAN       CLEAR     21  17  84 CALM      30.21R
DUPAGE AIRPORT CLEAR     24  17  74 W3        30.21R
KANKAKEE*      CLEAR     25  21  85 CALM      30.23R
WHEELING       CLEAR     25  17  72 CALM      30.23R
MORRIS*        CLEAR     26  20  76 SW3       30.21F
ROMEOVILLE*    CLEAR     26  17  68 SW5       30.22R WCI  20
NORTHERLY ISL    N/A     31  18  58 SW6         N/A  WCI  25
$$

LMZ740>746-290300-
SOUTHERN LAKE MICHIGAN

STATION/POSITION SKY/WX   TEMP    WIND        PRES    VSBY  WAVE
                          AIR SEA DIR/SP/G                  HT/PER
                          (F)     (DEG/KT/KT) (MB)    (MI)  (FT/S)
WAUKEGAN HARBOR            30        CALM       N/A
HARRISON CRIB              32     260/  8/  9   N/A
BURNHAM HARBOR             31     200/  3/  5   N/A
CALUMET HARBOR             29     220/  4/  5 1022.0R
MICHIGAN CITY              29     190/  7/  8   N/A
$$

ILZ025>027-034>036-040-047-049-050-058-095>099-290300-
WEST-CENTRAL ILLINOIS

CITY           SKY/WX    TMP DP  RH WIND       PRES   REMARKS
QUINCY         FAIR      30  22  72 S3        30.21R
GALESBURG*     CLEAR     22  19  89 CALM      30.21R
MACOMB*        CLEAR     26  24  91 S3        30.24R
JACKSONVILLE*  PTCLDY    27  22  80 CALM      30.23R
PITTSFIELD*    PTCLDY    30  27  88 CALM      30.23R
$$

ILZ028>032-037-038-041>044-048-051>054-059>061-290300-
CENTRAL ILLINOIS

CITY           SKY/WX    TMP DP  RH WIND       PRES   REMARKS
PONTIAC        CLEAR     24  21  89 CALM      30.23S
BLOOMINGTON    CLEAR     25  22  88 S3        30.23R
DECATUR        CLEAR     25  22  88 CALM      30.23R
PEORIA         CLEAR     26  17  68 CALM      30.23R
LACON*         CLEAR     24  17  75 CALM      30.23R
LINCOLN*       CLEAR     27  23  86 CALM      30.24S
SPRINGFIELD    CLEAR     26  22  84 CALM      30.24R
TAYLORVILLE    CLEAR     27  25  93 CALM      30.24R
$$

ILZ033-039-045-046-055>057-062-063-290300-
EAST-CENTRAL ILLINOIS

CITY           SKY/WX    TMP DP  RH WIND       PRES   REMARKS
CHAMPAIGN      CLEAR     25  20  81 CALM      30.22S
DANVILLE*      CLEAR     24  23  96 CALM      30.20S
RANTOUL*       CLEAR     26  21  83 CALM      30.22R
MATTOON        CLEAR     25  24  96 CALM      30.22R
PARIS*         CLEAR     26  24  93 CALM      30.23F
$$

ILZ079-100>102-290300-
SOUTHWEST ILLINOIS

CITY           SKY/WX    TMP DP  RH WIND       PRES   REMARKS
CAHOKIA*       CLEAR     30  26  85 CALM      30.23S
SPARTA*        CLEAR     28  26  90 CALM      30.24R
$$

ILZ064>066-069>071-074>076-080>082-084>086-088>090-092>094-290300-
SOUTH-CENTRAL ILLINOIS

CITY           SKY/WX    TMP DP  RH WIND       PRES   REMARKS
CARBONDALE     CLOUDY    32  26  78 N5        30.23S WCI  27
CAIRO*         CLOUDY    37  31  80 NE5       30.23R WCI  33
EFFINGHAM*     CLEAR     26  23  88 CALM      30.25R
MARION         CLOUDY    34  28  80 NE5       30.23S WCI  30
MT. VERNON     CLOUDY    30  25  80 CALM      30.24S
CENTRALIA*     PTCLDY    31  25  80 CALM      30.23F
SALEM*         CLEAR     29  27  91 CALM      30.23S
METROPOLIS*    CLOUDY    34  32  92 CALM      30.21S
$$

ILZ067-068-072-073-078-083-087-091-290300-
SOUTHEAST ILLINOIS

CITY           SKY/WX    TMP DP  RH WIND       PRES   REMARKS
LAWRENCEVILLE  CLEAR     27  24  89 N5        30.24R WCI  22
FLORA*         CLEAR     29  26  91 CALM      30.24S
FAIRFIELD*     PTCLDY    29  27  91 CALM      30.23S
HARRISBURG*    CLOUDY    33  28  83 N5        30.24S WCI  28
ROBINSON*      CLEAR     26  24  91 CALM      30.25R
CARMI*         MOCLDY    31  30  96 N5        30.23S WCI  26
$$

ABBREVIATIONS USED IN REMARKS
   TC - TEMPERATURE IN CELSIUS
  WCI - WIND CHILL INDEX
   HX - HEAT INDEX
  VSB - VISIBILITY
$$



USA.gov is the U.S. government's official web portal to all federal, state and local government web resources and services.